DateTimeUTC,F1_A11,F1_S11,BsB_S11,BsG_S11,BsR_S11,BbsB_S11,BbsG_S11,BbsR_S11,BaB_A11,BaG_A11,BaR_A11,Tu_S11,T_S11,Uu_S11,U_S11,P_S11,T1_A11
2021-03-14T02:00:00Z,00000200,21000000,,,,,,,-000.17,-000.31,-000.20,16.7,24.2,,00.0,0639.3,30.9
2021-03-14T02:01:00Z,00000200,21000000,,,,,,,-000.37,-000.04,-000.07,16.7,24.3,,00.0,0639.3,30.9
2021-03-14T02:02:00Z,00000200,21000000,,,,,,,0000.05,-000.46,-000.51,16.7,24.3,,00.0,0639.3,30.9
2021-03-14T02:03:00Z,00000200,61000000,,,,,,,-000.08,-000.18,-000.06,16.7,24.3,,00.0,0639.3,30.9
2021-03-14T02:04:00Z,00000200,41000000,0000.83,0000.50,0000.30,0000.19,0000.22,0000.03,0000.17,0000.14,0000.46,16.8,24.1,,00.0,0640.1,30.9
2021-03-14T02:05:00Z,00000200,01000000,0001.16,0000.48,0000.27,0000.07,0000.00,-000.02,0000.03,0000.30,0000.10,16.8,24.0,,00.0,0640.2,30.9
2021-03-14T02:06:00Z,00000200,01000000,0000.77,0000.45,0000.27,0001.01,-000.08,0000.14,0000.54,0000.35,0000.23,16.7,24.0,,00.0,0640.2,30.9
2021-03-14T02:07:00Z,00000200,01000000,0001.16,0000.61,0000.28,-000.09,0000.10,0000.24,0000.09,0000.40,0000.02,16.7,23.9,,00.0,0640.2,30.9
2021-03-14T02:08:00Z,00000200,01000000,0001.36,0000.48,0000.38,0000.28,0000.17,0000.28,0000.27,0000.01,0000.13,16.6,23.9,,00.0,0640.2,30.9
2021-03-14T02:09:00Z,00000200,01000000,0000.88,0000.48,0000.27,0000.04,-000.03,-000.10,0000.12,0000.06,0000.22,16.6,23.9,,00.0,0640.2,30.9
2021-03-14T02:10:00Z,00000200,01000000,0001.46,0000.49,0000.20,0000.36,0000.19,0000.14,0000.14,0000.11,0000.09,16.5,23.8,,00.0,0640.2,30.8
2021-03-14T02:11:00Z,00000200,01000000,0000.53,0000.59,0000.30,0000.35,-000.04,0000.06,0000.24,0000.08,0000.24,16.5,23.8,,00.0,0640.2,30.8
2021-03-14T02:12:00Z,00000200,01000000,0000.96,0000.30,0000.40,-000.08,0000.46,-000.22,0000.02,0000.21,-000.13,16.5,23.8,,00.0,0640.2,30.8
2021-03-14T02:13:00Z,00000200,01000000,0001.17,0000.65,0000.23,-000.11,0000.06,0000.10,0000.02,-000.02,0000.15,16.5,23.8,,00.0,0640.2,30.8
2021-03-14T02:14:00Z,00000200,01000000,0001.47,0000.52,0000.07,-000.09,0000.05,0000.06,0000.53,0000.53,0000.37,16.6,23.8,,00.0,0640.2,30.9
2021-03-14T02:15:00Z,00000200,01000000,0001.00,0000.53,0000.13,0000.38,0000.14,-000.01,-000.13,-000.07,-000.29,16.7,23.8,,00.0,0640.2,30.9
2021-03-14T02:16:00Z,00000200,01000000,0000.58,0000.33,0000.46,0000.13,0000.00,-000.06,0000.13,0000.33,0000.49,16.7,23.8,,00.0,0640.2,30.9
2021-03-14T02:17:00Z,00000200,01000000,0000.84,0000.31,0000.21,-000.32,0000.06,0000.31,-000.15,-000.17,-000.14,16.8,23.9,,00.0,0640.2,30.9
2021-03-14T02:18:00Z,00000200,01000000,0000.73,0000.60,0000.19,-000.04,0000.44,0000.28,0000.21,0000.17,-000.07,16.8,23.8,,00.0,0640.2,30.9
2021-03-14T02:19:00Z,00000200,01000000,0000.75,0000.67,0000.31,-000.10,0000.21,-000.06,0000.09,-000.00,0000.12,16.7,23.8,,00.0,0640.2,30.9
2021-03-14T02:20:00Z,00000200,01000000,0001.59,0000.40,0000.15,0000.52,0000.23,0000.06,0000.25,-000.01,0000.09,16.7,23.8,,00.0,0640.2,30.9
2021-03-14T02:21:00Z,00000200,01000000,0000.94,0000.39,0000.08,0000.26,0000.07,0000.00,0000.13,0000.23,0000.26,16.6,23.8,,00.0,0640.2,30.9
2021-03-14T02:22:00Z,00000200,01000000,0001.15,0000.51,0000.09,0000.50,-000.00,0000.14,0000.11,0000.13,0000.21,16.6,23.8,,00.0,0640.2,30.9
2021-03-14T02:23:00Z,00000200,01000000,0001.28,0000.25,0000.11,-000.07,0000.03,-000.04,-000.08,-000.15,-000.34,16.5,23.7,,00.0,0640.2,30.8
2021-03-14T02:24:00Z,00000200,01000000,0001.42,0000.41,0000.27,0000.60,0000.05,0000.23,-000.03,-000.08,0000.05,16.5,23.7,,00.0,0640.2,30.8
2021-03-14T02:25:00Z,00000200,01000000,0000.75,0000.64,0000.64,0000.13,0000.16,0000.09,0000.40,0000.33,0000.18,16.4,23.7,,00.0,0640.2,30.8
2021-03-14T02:26:00Z,00000200,01000000,0000.80,0000.27,0000.23,0000.24,0000.05,0000.02,0000.18,0000.33,0000.33,16.4,23.7,,00.0,0640.2,30.8
2021-03-14T02:27:00Z,00000200,01000000,0001.28,0000.36,0000.33,0000.44,-000.08,0000.19,0000.08,0000.06,0000.01,16.3,23.6,,00.0,0640.2,30.8
2021-03-14T02:28:00Z,00000200,01000000,0001.40,0000.36,0000.21,0000.28,-000.03,0000.12,0000.33,0000.29,0000.21,16.4,23.6,,00.0,0640.2,30.8
2021-03-14T02:29:00Z,00000200,01000000,0000.64,0000.35,0000.13,-000.23,0000.10,0000.09,-000.13,-000.19,0000.13,16.4,23.6,,00.0,0640.2,30.9
2021-03-14T02:30:00Z,00000200,01000000,0000.19,0000.41,0000.35,-000.17,0000.12,0000.02,0000.30,0000.21,0000.10,16.5,23.7,,00.0,0640.2,30.9
2021-03-14T02:31:00Z,00000200,01000000,0001.39,0000.24,0000.22,0000.18,0000.05,0000.06,-000.21,0000.33,0000.03,16.6,23.7,,00.0,0640.2,30.9
2021-03-14T02:32:00Z,00000200,01000000,0001.33,0000.41,0000.19,0000.47,0000.02,0000.23,0000.18,-000.09,-000.01,16.6,23.7,,00.0,0640.2,30.9
2021-03-14T02:33:00Z,00000200,01000000,0000.82,0000.50,0000.35,0000.56,0000.17,0000.14,0000.42,-000.21,0000.27,16.7,23.7,,00.0,0640.2,30.9
2021-03-14T02:34:00Z,00000200,01000000,0000.96,0000.53,-000.08,-000.05,0000.15,0000.03,0000.16,0000.48,0000.24,16.8,23.8,,00.0,0640.2,30.9
2021-03-14T02:35:00Z,00000200,01000000,0000.88,0000.39,0000.35,-000.33,0000.07,0000.14,0000.49,0000.07,-000.14,16.8,23.8,,00.0,0640.3,30.9
2021-03-14T02:36:00Z,00000200,01000000,0001.09,0000.39,0000.32,0000.21,0000.06,0000.27,-000.07,0000.23,0000.11,16.8,23.8,,00.0,0640.3,30.9
2021-03-14T02:37:00Z,00000200,01000000,0001.05,0000.46,0000.30,0000.11,0000.15,-000.02,-000.10,-000.05,-000.27,16.8,23.8,,00.0,0640.3,30.9
2021-03-14T02:38:00Z,00000200,01000000,0000.62,0000.49,0000.21,0000.14,0000.11,-000.10,0000.36,0000.16,0000.27,16.7,23.8,,00.0,0640.2,30.9
2021-03-14T02:39:00Z,00000200,01000000,0000.82,0000.31,0000.24,0000.00,-000.11,0000.05,-000.05,0000.17,0000.36,16.6,23.8,,00.0,0640.2,30.9
2021-03-14T02:40:00Z,00000200,01000000,0001.44,0000.20,0000.21,0000.04,0000.17,-000.06,0000.20,0000.05,-000.03,16.6,23.7,,00.0,0640.2,30.9
2021-03-14T02:41:00Z,00000200,01000000,0000.19,0000.60,0000.30,-000.15,-000.13,0000.29,-000.02,0000.09,0000.05,16.5,23.7,,00.0,0640.2,30.9
2021-03-14T02:42:00Z,00000200,01000000,0001.41,0000.48,0000.34,0000.20,0000.09,0000.03,0000.31,0000.57,0000.63,16.5,23.7,,00.0,0640.2,30.8
2021-03-14T02:43:00Z,00000200,01000000,0000.90,0000.21,0000.11,0000.49,0000.23,0000.23,0000.07,-000.28,-000.38,16.5,23.7,,00.0,0640.2,30.9
2021-03-14T02:44:00Z,00000200,01000000,0000.93,0000.49,-000.05,0000.12,-000.09,-000.12,0000.63,0000.80,0000.14,16.6,23.7,,00.0,0640.2,30.9
2021-03-14T02:45:00Z,00000200,01000000,0001.06,0000.60,0000.50,0000.36,-000.03,0000.08,-000.23,-000.05,0000.17,16.7,23.7,,00.0,0640.2,30.9
2021-03-14T02:46:00Z,00000200,01000000,0001.08,0000.28,0000.12,0000.45,0000.21,0000.23,0000.02,0000.18,0000.46,16.7,23.8,,00.0,0640.2,30.9
2021-03-14T02:47:00Z,00000200,01000000,0001.21,0000.42,0000.49,0000.25,0000.07,0000.53,0000.42,0000.23,-000.10,16.8,23.8,,00.0,0640.2,30.9
2021-03-14T02:48:00Z,00000200,01000000,0000.80,0000.31,0000.00,-000.17,0000.01,-000.02,0000.16,-000.07,0000.07,16.9,23.8,,00.0,0640.3,30.9
2021-03-14T02:49:00Z,00000200,01000000,0000.66,0000.54,0000.12,-000.17,0000.15,-000.12,0000.32,0000.31,0000.23,16.9,23.8,,00.0,0640.3,30.9
2021-03-14T02:50:00Z,00000200,01000000,0000.74,0000.34,0000.14,0000.26,0000.21,-000.19,0000.11,0000.26,-000.02,17.0,23.9,,00.0,0640.3,30.9
2021-03-14T02:51:00Z,00000200,01000000,0001.30,0000.69,0000.23,-000.08,0000.30,0000.11,0000.06,-000.18,0000.15,17.0,23.9,,00.0,0640.3,30.9
2021-03-14T02:52:00Z,00000200,01000000,0001.06,0000.23,0000.27,0000.28,0000.15,0000.06,0000.03,-000.04,0000.07,17.0,23.9,,00.0,0640.3,30.9
2021-03-14T02:53:00Z,00000200,01000000,0000.53,0000.57,0000.01,0000.12,0000.15,0000.09,0000.14,0000.18,0000.05,16.9,23.9,,00.0,0640.3,30.9
2021-03-14T02:54:00Z,00000200,01000000,0000.72,0000.35,0000.18,-000.13,0000.07,0000.14,-000.11,0000.12,-000.18,16.8,23.9,,00.0,0640.3,30.9
2021-03-14T02:55:00Z,00000200,01000000,0000.40,0000.07,0000.10,0000.27,0000.09,0000.08,0000.40,0000.07,0000.50,16.8,23.8,,00.0,0640.3,30.9
2021-03-14T02:56:00Z,00000200,01000000,0001.30,0000.51,0000.24,-000.02,-000.06,0000.30,-000.08,-000.22,0000.05,16.7,23.8,,00.0,0640.3,30.9
2021-03-14T02:57:00Z,00000200,41000000,,,,,,,0001.50,0001.63,0000.68,16.7,23.8,,00.0,0640.3,30.9
2021-03-14T02:58:00Z,00000200,61000000,,,,,,,-000.31,-000.38,-000.30,16.4,24.0,,00.0,0639.3,30.9
2021-03-14T02:59:00Z,00000200,21000000,,,,,,,-001.03,-000.50,-000.23,16.4,24.1,,00.0,0639.3,30.9
